[[{"header":{"parameterUnit":"m.s-1","parameterCategory":1,"la1":30.2991,"la2":30.254,"lo1":-89.0895,"lo2":-89.0444,"dy":0.0017,"dx":0.0017,"nx":28,"ny":28,"refTime":"2024-11-23T03:00:00:Z","depth":0,"parameterNumber":2,"parameterNumberName":"U-component_of_WINDS"},"data":[0,0,0,0,0,0,0,0,0,0,0,0,0,0,0,0,0,0,0,0,0,0,0,0,0,0,0,0,0,0,0,0,0,0,0,0,0,0,0,0,0,0,0,0,0,0,0,0,0,0,0,0,0,0,0,0,0,0,1.024,1.024,0,1.0222,1.0222,1.0222,1.0196,1.0195,1.0195,1.0194,1.0175,1.0175,1.0175,0,0,0,0,0,0,0,0,0,0,0,0,0,1.025,1.025,1.024,1.0239,1.0239,1.0222,1.0222,1.0222,1.0196,1.0195,1.0195,1.0194,1.0175,1.0175,1.0175,0,0,0,0,0,0,0,0,0,0,0,0,0,1.0241,1.025,1.024,1.0224,1.0223,1.0222,1.0222,1.0222,1.0196,1.0195,1.0194,1.0194,1.0175,1.0175,1.0175,1.0188,0,0,1.0175,1.0174,0,0,0,0,0,0,0,0,1.0241,1.024,1.0227,1.0225,1.0224,1.021,1.0219,1.021,1.0196,1.0206,1.0194,1.0193,1.0187,1.0186,1.0184,1.0187,1.0186,1.0175,1.0174,1.0174,1.0174,0,0,0,0,0,0,0,1.0242,1.0241,1.0233,1.0227,1.0225,1.0218,1.0216,1.0217,1.0201,1.0205,1.0203,1.0202,1.0186,1.0185,1.0184,1.0186,1.0175,1.0174,1.0174,1.0174,1.02,1.0201,0,0,0,0,0,0,1.0245,1.0242,1.0233,1.0232,1.0231,1.0219,1.0216,1.0215,1.0201,1.0198,1.0202,1.02,1.0185,1.0184,1.0183,1.0198,1.0174,1.0174,1.0174,1.0199,1.02,1.0201,0,0,0,0,0,0,1.0245,1.0244,1.0234,1.0236,1.0235,1.0219,1.0218,1.0215,1.0214,1.0198,1.0195,1.0203,1.0185,1.0183,1.0187,1.0197,1.0174,1.0174,1.0199,1.02,1.0201,1.0228,0,0,0,0,0,0,1.0246,1.0245,1.0249,1.0237,1.0235,1.0239,1.0219,1.0216,1.0214,1.0211,1.0199,1.0196,1.0184,1.0188,1.0187,1.0197,1.0174,1.0198,1.0199,1.02,1.0227,1.023,1.0234,0,0,0,0,0,1.0246,1.0257,1.025,1.0249,1.024,1.0239,1.0238,1.0224,1.0214,1.0219,1.021,1.0196,1.0196,1.0188,1.0188,1.0197,1.0197,1.0199,1.02,1.0225,1.023,1.0234,0,0,0,0,0,0,1.027,1.0255,1.0247,1.0254,1.0248,1.0235,1.024,1.0229,1.0226,1.0224,1.0206,1.0204,1.0211,1.0204,1.0196,1.021,1.0195,1.0196,1.0214,1.0218,1.0221,1.0223,1.0174,0,0,0,0,0,1.0277,1.0278,1.0264,1.0272,1.027,1.0256,1.0255,1.0245,1.0238,1.0235,1.0226,1.022,1.0219,1.0218,1.0216,1.0226,1.0223,1.0232,1.0236,1.0239,1.024,1.0246,1.025,1.0207,1.0207,1.0207,0,0,1.0289,1.0281,1.0283,1.0277,1.0271,1.0273,1.0254,1.0256,1.0257,1.0235,1.0239,1.0233,1.0224,1.0232,1.0235,1.0227,1.0252,1.0241,1.0243,1.0243,1.0248,1.0253,1.0256,1.0208,1.0208,1.0208,0,0,1.0314,1.0307,1.0314,1.0309,1.0301,1.0292,1.0294,1.0283,1.0278,1.0281,1.0266,1.0267,1.0265,1.026,1.0257,1.0282,1.027,1.0282,1.03,1.0307,1.031,1.0313,1.0323,1.0326,1.0284,1.0284,1.0284,0,1.033,1.0332,1.0318,1.0322,1.032,1.0302,1.0309,1.0305,1.0296,1.0296,1.0287,1.0285,1.0278,1.0285,1.0292,1.029,1.0292,1.0283,1.0311,1.0314,1.0316,1.0325,1.0329,1.0285,1.0285,1.0285,1.0285,0,1.0354,1.0355,1.0361,1.0355,1.0354,1.0359,1.0346,1.0347,1.0338,1.033,1.0334,1.0326,1.0323,1.0324,1.0314,1.033,1.0325,1.0314,1.0298,1.0322,1.033,1.0334,1.0288,1.0287,1.0287,1.0286,0,0,1.0391,1.0379,1.0381,1.0379,1.037,1.0371,1.0375,1.0373,1.0374,1.037,1.0373,1.0373,1.0363,1.036,1.035,1.0356,1.0378,1.0344,1.0344,1.0351,1.0396,1.0404,1.0408,1.037,1.037,1.0371,1.0397,0,1.0414,1.0421,1.041,1.042,1.0422,1.0406,1.041,1.0406,1.0399,1.04,1.0392,1.0392,1.0379,1.0377,1.0382,1.0374,1.0386,1.0372,1.0374,1.0374,1.0376,1.0413,1.0421,1.0446,1.04,1.04,1.04,0,1.0441,1.0439,1.045,1.0442,1.0442,1.0446,1.0444,1.0444,1.0439,1.0434,1.0432,1.0421,1.0425,1.0411,1.0417,1.0408,1.0408,1.0404,1.0405,1.0405,1.0389,1.0414,1.0453,1.0457,1.0405,1.0405,1.0404,0,1.0468,1.0468,1.0475,1.0473,1.0464,1.0467,1.0463,1.0457,1.0457,1.0455,1.0455,1.0453,1.0453,1.0452,1.0441,1.0431,1.0449,1.0433,1.0445,1.0446,1.0449,1.0449,1.049,1.0449,1.0449,1.0449,1.0449,0,1.0494,1.0502,1.0487,1.0491,1.05,1.0487,1.0495,1.049,1.0485,1.0488,1.0474,1.0478,1.0463,1.0465,1.0456,1.0463,1.0463,1.0459,1.0457,1.0461,1.0461,1.046,1.0459,1.045,1.045,1.045,1.045,0,1.0526,1.0516,1.0523,1.0514,1.0512,1.0519,1.0511,1.0515,1.0508,1.0513,1.0513,1.0502,1.0503,1.0493,1.0492,1.0486,1.0498,1.0493,1.05,1.0499,1.0512,1.0511,1.0553,1.0559,1.0514,1.0515,1.0515,0,1.0543,1.0549,1.0541,1.0543,1.054,1.0543,1.0543,1.0531,1.0532,1.0527,1.0532,1.0533,1.0532,1.0536,1.0528,1.0528,1.0523,1.0538,1.0522,1.0527,1.0524,1.0524,1.0525,1.0541,1.0541,1.0542,1.0542,0,1.0576,1.0572,1.0572,1.0572,1.0573,1.0572,1.057,1.0572,1.056,1.0561,1.0563,1.0564,1.0564,1.0565,1.0564,1.056,1.055,1.0547,1.055,1.0554,1.0559,1.0557,1.0509,1.0546,1.0546,1.0546,1.0545,1.0545,1.0601,1.0606,1.0602,1.0604,1.0602,1.0601,1.0605,1.0599,1.06,1.06,1.0593,1.0597,1.0593,1.059,1.0588,1.0591,1.0584,1.0588,1.0589,1.059,1.0593,1.0558,1.0591,1.059,1.059,1.059,1.059,0,1.0634,1.0631,1.0633,1.0631,1.0633,1.0624,1.0622,1.0624,1.0628,1.0625,1.0626,1.0629,1.0631,1.0624,1.0625,1.0629,1.0624,1.063,1.0629,1.0629,1.0599,1.0596,1.0634,1.0633,1.0633,1.0633,1.0633,1.0633,1.0651,1.0659,1.0654,1.0662,1.0658,1.0663,1.0662,1.0662,1.066,1.0665,1.0666,1.0662,1.0658,1.0659,1.066,1.0658,1.0659,1.0667,1.0663,1.0635,1.0631,1.0627,1.0625,1.0667,1.0667,1.0693,1.0693,1.0693]},{"header":{"parameterUnit":"m.s-1","parameterCategory":1,"la1":30.2991,"la2":30.254,"lo1":-89.0895,"lo2":-89.0444,"dy":0.0017,"dx":0.0017,"nx":28,"ny":28,"refTime":"2024-11-23T03:00:00:Z","depth":0,"parameterNumber":3,"parameterNumberName":"V-component_of_WINDS"},"data":[0,0,0,0,0,0,0,0,0,0,0,0,0,0,0,0,0,0,0,0,0,0,0,0,0,0,0,0,0,0,0,0,0,0,0,0,0,0,0,0,0,0,0,0,0,0,0,0,0,0,0,0,0,0,0,0,0,0,-4.5923,-4.5925,0,-4.608,-4.6082,-4.6084,-4.6038,-4.6035,-4.6032,-4.6029,-4.6187,-4.6194,-4.6201,0,0,0,0,0,0,0,0,0,0,0,0,0,-4.558,-4.5586,-4.5923,-4.5925,-4.5927,-4.608,-4.6082,-4.6084,-4.6039,-4.6035,-4.6031,-4.6027,-4.6185,-4.6193,-4.6202,0,0,0,0,0,0,0,0,0,0,0,0,0,-4.5732,-4.5589,-4.5922,-4.5923,-4.5924,-4.608,-4.6082,-4.6085,-4.604,-4.6035,-4.603,-4.6026,-4.6182,-4.6192,-4.6203,-4.6367,0,0,-4.6236,-4.6241,0,0,0,0,0,0,0,0,-4.5724,-4.5745,-4.5921,-4.5923,-4.5925,-4.6035,-4.6019,-4.6179,-4.6041,-4.5996,-4.6029,-4.6023,-4.614,-4.6154,-4.6194,-4.6374,-4.6381,-4.6237,-4.6244,-4.6248,-4.6251,0,0,0,0,0,0,0,-4.5713,-4.5738,-4.5985,-4.5923,-4.5926,-4.5914,-4.593,-4.6049,-4.6093,-4.5999,-4.5997,-4.6016,-4.614,-4.6184,-4.6197,-4.6383,-4.6237,-4.6246,-4.6253,-4.6257,-4.6705,-4.671,0,0,0,0,0,0,-4.5701,-4.5729,-4.598,-4.599,-4.581,-4.5924,-4.5942,-4.6004,-4.6092,-4.61,-4.602,-4.6013,-4.6168,-4.6185,-4.6203,-4.64,-4.6248,-4.6258,-4.6265,-4.6699,-4.6706,-4.6712,0,0,0,0,0,0,-4.5694,-4.5724,-4.5974,-4.5859,-4.589,-4.5935,-4.6005,-4.601,-4.6053,-4.6107,-4.6114,-4.6057,-4.6165,-4.6188,-4.6326,-4.6405,-4.6263,-4.6273,-4.6693,-4.6701,-4.6709,-4.6796,0,0,0,0,0,0,-4.5685,-4.5722,-4.5785,-4.5861,-4.5896,-4.6096,-4.601,-4.6017,-4.6073,-4.6065,-4.6143,-4.6152,-4.6163,-4.6311,-4.6337,-4.6417,-4.6282,-4.6686,-4.6697,-4.6706,-4.6786,-4.6806,-4.6823,0,0,0,0,0,-4.5672,-4.5803,-4.5789,-4.5819,-4.5976,-4.61,-4.612,-4.6131,-4.6079,-4.6143,-4.6177,-4.6149,-4.6392,-4.6325,-4.6355,-4.6439,-4.6681,-4.6694,-4.6705,-4.6778,-4.6802,-4.6822,0,0,0,0,0,0,-4.5735,-4.5813,-4.5798,-4.5957,-4.6023,-4.6093,-4.6173,-4.6156,-4.6237,-4.6227,-4.6236,-4.6254,-4.6396,-4.6431,-4.6355,-4.6602,-4.6529,-4.6547,-4.6574,-4.6597,-4.6615,-4.6604,-4.6291,0,0,0,0,0,-4.5767,-4.5862,-4.5925,-4.6059,-4.6093,-4.6128,-4.6182,-4.6185,-4.6252,-4.628,-4.6324,-4.639,-4.6481,-4.6541,-4.6628,-4.6791,-4.6807,-4.6864,-4.6882,-4.6897,-4.6913,-4.7001,-4.7027,-4.6752,-4.6751,-4.6751,0,0,-4.5835,-4.5889,-4.5949,-4.6073,-4.6124,-4.6222,-4.6151,-4.6257,-4.6329,-4.6295,-4.643,-4.6465,-4.6539,-4.669,-4.6759,-4.6724,-4.6992,-4.6912,-4.6924,-4.6932,-4.7016,-4.7042,-4.7065,-4.676,-4.6758,-4.6757,0,0,-4.6008,-4.6059,-4.6176,-4.6229,-4.6308,-4.633,-4.6358,-4.6431,-4.6453,-4.6588,-4.6565,-4.665,-4.6807,-4.6861,-4.6908,-4.7102,-4.7079,-4.713,-4.7225,-4.7312,-4.7333,-4.7353,-4.7421,-4.7446,-4.7145,-4.7146,-4.7146,0,-4.6082,-4.6229,-4.6238,-4.6347,-4.6402,-4.6377,-4.6495,-4.6545,-4.6648,-4.6686,-4.6646,-4.6842,-4.689,-4.7054,-4.7101,-4.7141,-4.7173,-4.7121,-4.733,-4.7349,-4.7367,-4.7433,-4.7459,-4.7151,-4.7151,-4.715,-4.715,0,-4.6316,-4.6418,-4.6503,-4.6604,-4.6668,-4.6781,-4.6807,-4.6871,-4.6868,-4.6894,-4.7032,-4.7088,-4.7186,-4.7225,-4.7223,-4.7389,-4.7365,-4.7327,-4.7254,-4.7399,-4.7461,-4.7486,-4.7159,-4.7157,-4.7156,-4.7154,0,0,-4.6533,-4.6638,-4.6669,-4.6714,-4.6799,-4.6877,-4.6989,-4.7085,-4.714,-4.7211,-4.7304,-4.7438,-4.7404,-4.7458,-4.7461,-4.7537,-4.7686,-4.749,-4.7492,-4.7524,-4.7872,-4.79,-4.7929,-4.7671,-4.7676,-4.768,-4.7866,0,-4.6713,-4.691,-4.6922,-4.71,-4.7194,-4.7171,-4.7268,-4.733,-4.7357,-4.744,-4.747,-4.7564,-4.7512,-4.7545,-4.7618,-4.7652,-4.7756,-4.7639,-4.7757,-4.7761,-4.774,-4.7961,-4.7991,-4.8164,-4.789,-4.7894,-4.7897,0,-4.695,-4.703,-4.7218,-4.7289,-4.7329,-4.7416,-4.7505,-4.7585,-4.7655,-4.7669,-4.773,-4.7723,-4.7835,-4.7758,-4.7914,-4.7834,-4.7883,-4.7907,-4.7914,-4.7925,-4.7838,-4.7979,-4.8219,-4.8245,-4.7935,-4.7932,-4.7929,0,-4.7089,-4.7244,-4.7376,-4.7415,-4.7502,-4.7564,-4.7602,-4.7667,-4.7724,-4.7802,-4.7839,-4.7928,-4.7977,-4.8046,-4.8063,-4.8005,-4.8218,-4.8142,-4.8232,-4.8232,-4.8278,-4.8275,-4.853,-4.831,-4.831,-4.8309,-4.8309,0,-4.729,-4.7405,-4.744,-4.7521,-4.765,-4.7662,-4.7789,-4.7823,-4.7881,-4.7968,-4.7953,-4.8034,-4.8051,-4.8136,-4.8149,-4.8276,-4.8298,-4.8312,-4.8314,-4.8314,-4.8312,-4.8346,-4.8334,-4.8316,-4.8314,-4.8313,-4.8312,0,-4.7467,-4.7495,-4.7638,-4.7708,-4.7728,-4.782,-4.788,-4.7957,-4.7983,-4.8093,-4.8119,-4.8159,-4.8258,-4.8281,-4.8399,-4.8408,-4.8558,-4.8548,-4.8535,-4.8534,-4.8623,-4.8614,-4.8909,-4.8948,-4.8702,-4.8704,-4.8706,0,-4.7593,-4.7682,-4.7762,-4.782,-4.7861,-4.7954,-4.8013,-4.8028,-4.8089,-4.8175,-4.8242,-4.834,-4.8418,-4.8578,-4.8616,-4.8706,-4.8698,-4.8795,-4.8712,-4.8708,-4.87,-4.8694,-4.8703,-4.8811,-4.8814,-4.8816,-4.8818,0,-4.7814,-4.7823,-4.7909,-4.8,-4.807,-4.8142,-4.821,-4.8258,-4.8282,-4.8352,-4.8453,-4.8515,-4.8635,-4.8732,-4.8822,-4.8861,-4.8844,-4.8844,-4.8869,-4.887,-4.8858,-4.8866,-4.8578,-4.8837,-4.8835,-4.8834,-4.8833,-4.8832,-4.7969,-4.8047,-4.8116,-4.8211,-4.8265,-4.8329,-4.8406,-4.8441,-4.8526,-4.8626,-4.8629,-4.874,-4.8806,-4.8926,-4.897,-4.9056,-4.9026,-4.9063,-4.9072,-4.9081,-4.9089,-4.8845,-4.9072,-4.9072,-4.9071,-4.9071,-4.907,0,-4.8189,-4.8232,-4.832,-4.8417,-4.8492,-4.847,-4.8545,-4.8609,-4.8707,-4.8771,-4.8849,-4.8965,-4.9059,-4.9105,-4.9198,-4.9258,-4.9252,-4.9282,-4.9277,-4.9286,-4.9111,-4.9079,-4.9285,-4.9285,-4.9285,-4.9285,-4.9285,-4.9284,-4.8312,-4.8443,-4.846,-4.8616,-4.8658,-4.8768,-4.8812,-4.8871,-4.8922,-4.9053,-4.9132,-4.9161,-4.9218,-4.9314,-4.9399,-4.941,-4.9445,-4.9478,-4.9485,-4.9321,-4.9299,-4.9278,-4.9248,-4.9486,-4.9486,-4.9654,-4.9655,-4.9656]}]]